CAPE
947 983 947 873 893 808 684 555 476 469 374 434 397 362 319 229 0 0 0 0 0 0 2 122 400 448 476 431 344 317 318 391 402 372 325 368 547 1325 1448 1621 1565 1358 1234 952 592 382 292 481 567 621 267 121 117 99 62 80 53 44 46 36 9 9 4 2 2 2 2 3 2 1 2 3 5 5 3 3 2 0 0 2 2 3 2 3 5
846 908 842 772 786 701 624 575 592 467 459 493 484 312 27 0 0 0 0 0 6 264 350 10 14 323 510 538 445 388 349 420 375 369 397 484 608 1074 1253 1180 1291 1212 982 617 357 241 237 887 772 644 263 187 123 109 118 108 118 119 92 45 24 2 3 5 5 4 1 1 3 2 2 3 3 4 3 4 2 1 0 2 1 3 1 3 1
741 731 655 657 607 627 646 699 682 454 457 450 425 0 0 241 0 0 0 0 1 244 269 37 33 392 541 513 418 394 466 437 421 409 471 498 472 542 1244 1403 1255 1371 1218 923 547 373 226 726 965 654 433 332 325 259 194 154 152 188 154 97 56 34 14 7 4 1 3 2 0 1 2 2 2 2 2 2 2 1 0 0 1 2 3 4 1
662 626 632 618 630 667 732 702 678 655 612 571 375 0 0 0 0 0 0 0 0 369 405 415 419 468 514 478 437 471 503 480 452 481 493 493 474 509 620 912 1651 1658 1680 1764 1440 512 258 433 832 820 529 425 486 386 212 246 262 238 209 198 173 89 66 30 0 0 0 2 4 3 2 1 0 0 0 0 1 1 1 1 1 1 1 2 1
679 660 696 758 786 831 811 722 656 586 560 469 53 0 1 0 173 172 0 0 37 352 390 424 436 448 470 428 430 511 542 558 484 510 495 501 507 523 554 603 696 1124 1484 1653 1473 1548 1256 1140 574 559 817 746 625 643 453 335 442 475 273 291 222 137 116 80 8 0 0 0 0 1 2 2 0 0 0 0 0 0 0 0 0 0 0 2 0
758 747 744 742 729 707 680 622 528 494 418 347 86 0 0 0 230 242 220 77 194 336 377 388 405 406 441 420 423 480 772 546 530 409 477 502 544 574 601 643 663 658 787 1182 1000 692 758 808 799 761 660 572 437 624 514 570 574 555 600 292 291 224 210 153 106 1 0 0 0 0 0 0 0 0 0 0 0 0 0 0 0 0 0 0 0
772 753 719 686 634 563 536 534 639 682 549 465 494 35 0 76 225 254 231 103 40 286 296 296 336 382 434 388 320 392 555 441 398 509 506 497 547 605 645 688 656 586 694 709 679 660 807 641 667 745 538 380 532 571 711 705 652 699 626 558 446 388 274 283 240 116 21 0 0 0 0 0 0 0 0 0 0 0 0 0 0 0 0 0 0
833 797 783 693 599 511 522 594 721 853 692 585 506 355 0 0 80 170 162 74 17 8 294 294 305 380 374 366 384 302 279 290 432 488 471 494 491 572 605 654 608 645 688 709 554 715 726 638 751 597 436 355 441 466 581 724 761 796 492 570 388 530 395 454 331 258 177 64 1 0 0 0 0 0 0 0 0 0 0 0 0 0 0 0 0
974 929 809 675 452 417 462 676 962 993 659 581 485 428 375 226 7 122 162 24 200 117 290 351 366 304 0 193 215 232 264 254 398 450 424 434 431 442 558 704 750 466 520 499 358 298 674 936 866 743 606 453 432 566 780 974 978 812 758 785 512 469 509 524 494 413 332 286 154 225 11 0 0 0 0 0 0 0 0 0 0 0 0 0 0
1145 985 768 494 372 395 466 839 990 818 482 468 473 418 312 222 202 165 95 74 121 230 280 323 378 308 187 354 152 286 261 249 177 151 186 133 127 129 312 421 370 352 402 288 172 128 189 174 134 262 292 504 742 847 985 906 806 667 674 642 534 711 649 590 616 462 473 453 402 344 295 90 5 8 1 0 0 0 0 0 0 0 0 0 0
1121 977 739 580 479 546 596 883 700 502 409 430 469 425 312 19 2 152 44 67 116 233 273 277 333 414 488 414 372 316 303 306 280 233 254 251 441 89 39 210 260 217 241 279 226 257 201 157 27 23 45 54 127 71 173 367 651 768 504 764 905 604 531 417 646 489 504 567 451 341 424 320 38 16 34 19 24 0 0 0 0 0 0 0 0
1017 964 806 629 558 764 850 707 598 539 446 439 469 454 155 0 240 274 255 214 190 257 260 271 314 313 340 341 397 472 465 378 295 284 336 349 416 374 312 237 207 193 255 249 295 239 249 292 279 203 203 194 141 4 0 17 120 437 729 752 704 750 701 478 557 564 467 413 341 323 383 213 230 210 147 83 91 56 0 0 0 0 0 0 0
965 910 842 738 708 911 904 692 629 565 504 460 498 468 346 258 301 321 278 262 272 310 348 243 364 366 330 257 230 182 197 72 24 1 0 202 324 211 254 306 321 328 349 382 137 80 150 294 275 230 220 130 0 0 0 0 7 146 380 726 780 745 643 557 504 501 402 363 412 369 352 283 250 220 289 262 161 143 129 93 34 7 1 0 0
829 881 838 842 904 990 859 775 675 616 577 521 530 487 421 353 366 333 259 266 274 386 449 489 365 297 265 207 184 185 223 249 304 279 0 0 0 49 251 281 305 357 303 188 159 202 96 0 0 89 44 0 0 0 0 0 2 96 439 544 666 768 843 576 695 682 460 373 378 228 166 237 318 251 285 345 288 278 221 169 129 72 34 6 2
918 885 927 830 884 748 933 840 707 697 664 565 573 518 518 402 414 322 289 278 317 406 488 441 316 278 264 221 35 62 0 60 186 248 0 0 0 8 23 39 28 60 115 137 180 123 95 20 0 0 0 0 0 0 0 0 121 249 290 523 718 678 1015 881 756 722 622 477 439 328 192 164 226 251 287 218 197 226 220 167 165 154 45 74 28
1072 1033 1009 1001 917 920 890 810 780 723 722 603 612 564 547 387 441 371 325 313 361 420 444 371 298 289 106 80 0 0 0 0 0 0 0 0 0 1 7 16 32 100 210 251 183 71 7 0 0 0 0 0 0 0 0 20 174 259 323 357 627 902 792 683 889 620 416 433 544 508 298 277 271 167 174 168 186 279 240 168 196 256 225 57 8
1114 1072 1082 973 851 912 812 696 742 725 731 629 652 605 516 440 502 457 379 343 373 382 373 344 365 270 182 0 0 7 0 0 0 0 0 0 0 6 15 6 34 100 195 156 79 0 0 0 0 0 0 0 0 0 0 0 93 180 258 294 262 402 564 394 1136 1199 866 498 812 567 429 327 256 244 364 435 417 337 286 214 192 198 214 310 158
1103 1060 999 998 1040 952 672 559 687 771 741 668 714 656 518 392 576 551 453 413 420 468 464 413 415 143 70 0 0 49 0 0 0 0 0 0 0 0 0 0 1 5 9 8 17 0 0 0 0 0 0 0 0 0 0 0 57 125 220 246 130 289 266 460 375 698 444 255 190 151 87 12 0 0 0 22 102 230 277 256 210 181 209 102 108
1032 1062 991 996 1009 918 693 709 800 886 806 793 825 738 655 552 536 596 529 496 482 521 497 443 446 271 0 0 0 0 0 0 0 0 0 25 41 0 0 1 2 46 140 3 0 0 0 0 0 0 0 0 0 0 0 0 0 75 112 135 105 68 0 0 52 26 10 0 0 0 0 0 0 0 0 0 0 0 2 24 57 64 117 59 219
1101 1024 844 656 615 707 670 827 832 1096 930 981 927 858 780 660 510 475 446 449 488 491 557 452 475 416 491 196 0 0 0 0 0 0 0 0 4 0 42 59 138 77 13 0 0 0 0 0 0 0 0 0 0 0 0 0 0 0 0 0 0 0 0 0 0 0 0 0 0 0 0 0 0 0 0 0 0 0 0 0 0 0 1 8 74
849 776 622 534 542 594 777 914 968 1106 1000 960 892 895 856 757 577 500 544 516 500 468 451 472 445 423 407 0 0 0 0 0 0 0 0 0 12 4 7 22 0 0 0 0 0 0 0 0 0 0 0 0 0 0 0 0 0 0 0 0 0 0 0 0 0 0 0 0 0 0 0 0 0 0 0 0 0 0 0 0 0 0 0 0 0
523 524 507 467 462 498 565 684 828 1012 1067 956 1042 921 880 955 888 724 682 650 619 630 600 508 413 382 16 338 312 0 0 0 0 0 0 0 4 0 6 16 5 0 0 0 0 0 0 0 0 0 0 0 0 0 0 0 0 0 0 0 0 0 0 0 0 0 0 0 0 0 0 0 0 0 0 0 0 0 0 0 0 0 0 0 0
0 383 410 459 487 494 479 555 695 896 1060 1121 1001 1017 1036 964 993 952 809 714 594 638 647 620 518 437 402 376 347 43 0 0 0 0 0 0 0 0 0 0 0 0 5 0 0 0 0 0 0 0 0 0 0 0 0 0 0 0 0 0 0 0 0 0 0 0 0 0 0 0 0 0 0 0 0 0 0 0 0 0 0 0 0 0 0
0 0 0 0 0 306 575 556 584 794 1083 1170 1058 1110 1168 1073 1070 1050 900 762 662 590 582 618 638 566 480 421 393 325 0 0 0 0 0 0 0 0 0 0 0 0 7 0 0 0 0 0 0 0 0 0 0 0 0 0 0 0 0 0 0 0 0 0 0 0 0 0 0 0 0 0 0 0 0 0 0 0 0 0 0 0 0 0 0
0 0 0 0 0 0 21 382 473 518 752 1058 1130 1109 1109 990 983 974 787 639 545 498 526 569 620 625 589 488 467 350 0 0 0 0 0 0 0 0 0 0 0 0 0 0 0 0 0 0 0 0 0 0 0 0 0 0 0 0 0 0 0 0 0 0 0 0 0 0 0 0 0 0 0 0 0 0 0 0 0 0 0 0 0 0 0
0 0 0 0 0 0 0 0 0 462 524 677 804 980 1037 1015 795 694 579 575 410 394 463 459 434 474 539 560 477 300 0 0 0 0 0 0 0 0 0 0 0 0 0 0 0 0 0 0 0 0 0 0 0 0 0 0 0 0 0 0 0 0 0 0 0 0 0 0 0 0 0 0 0 0 0 0 0 0 0 0 0 0 0 0 0
0 0 0 0 0 0 0 0 0 168 421 436 467 560 768 968 836 608 518 539 463 426 395 379 404 407 417 532 524 317 178 10 0 0 0 0 0 0 0 0 0 0 0 0 0 0 0 0 0 0 0 0 0 0 0 0 0 0 0 0 0 0 0 0 0 0 0 0 0 0 0 0 0 0 0 0 0 0 0 0 0 0 0 0 0
0 0 0 0 0 0 0 0 0 418 480 549 602 623 698 799 636 476 472 528 550 474 462 359 326 425 472 537 579 456 261 152 30 47 9 0 0 0 0 0 0 0 0 0 0 0 0 0 0 0 0 0 0 0 0 0 0 0 0 0 0 0 0 0 0 0 0 0 0 0 0 0 0 0 0 0 0 0 0 0 0 0 0 0 0
0 0 0 0 0 0 0 0 98 365 440 460 514 582 628 643 616 568 677 684 617 531 425 346 328 448 618 634 634 564 361 212 128 113 47 0 0 0 0 0 0 0 0 0 0 0 0 0 0 0 0 0 0 0 0 0 0 0 0 0 0 0 0 0 0 0 0 0 0 0 0 0 0 0 0 0 0 0 0 0 0 0 0 0 0
0 0 0 0 0 0 0 0 0 110 454 530 514 546 642 652 684 699 676 609 501 413 191 0 273 466 490 585 636 531 380 304 237 152 48 0 0 0 0 0 0 0 0 0 0 0 0 0 0 0 0 0 0 0 0 0 0 0 0 0 0 0 0 0 0 0 0 0 0 0 0 0 0 0 0 0 0 0 0 0 0 0 0 0 0
0 0 0 0 0 0 0 0 69 483 552 567 562 558 612 666 672 599 374 69 0 0 0 0 238 481 578 634 601 644 500 366 324 202 83 6 0 0 0 0 0 0 0 0 0 0 0 0 0 0 0 0 0 0 0 0 0 0 0 0 0 0 0 0 0 0 0 0 0 0 0 0 0 0 0 0 0 0 0 0 0 0 0 0 0
0 0 0 0 0 0 0 0 46 506 584 584 501 515 513 529 460 0 0 0 0 0 0 0 0 48 62 223 220 404 615 552 351 249 113 0 0 0 0 0 0 0 0 0 0 0 0 0 0 0 0 0 0 0 0 0 0 0 0 0 0 0 0 0 0 0 0 0 0 0 0 0 0 0 0 0 0 0 0 0 0 0 0 0 0
0 0 0 0 0 0 0 0 0 178 302 0 0 286 286 184 0 0 0 0 0 0 0 0 0 0 0 0 0 0 185 501 449 340 235 0 0 0 0 0 0 0 0 0 0 0 0 0 0 0 0 0 0 0 0 0 0 0 0 0 0 0 0 0 0 0 0 0 0 0 0 0 0 0 0 0 0 0 0 0 0 0 0 0 0
0 0 0 0 0 0 0 0 0 0 0 0 0 0 204 184 0 0 0 0 0 0 0 0 0 0 0 0 0 0 0 0 140 239 16 0 0 0 0 0 0 0 0 0 0 0 0 0 0 0 0 0 0 0 0 0 0 0 0 0 0 0 0 0 0 0 0 0 0 0 0 0 0 0 0 0 0 0 0 0 0 0 0 0 0
0 0 0 0 0 0 0 0 0 0 0 0 0 0 0 0 0 0 0 0 0 0 0 0 0 0 0 0 0 0 0 0 0 0 0 0 0 0 0 0 0 0 0 0 0 0 0 0 0 0 0 0 0 0 0 0 0 0 0 0 0 0 0 0 0 0 0 0 0 0 0 0 0 0 0 0 0 0 0 0 0 0 0 0 0
0 0 0 0 0 0 0 0 0 0 0 0 0 0 0 0 0 0 0 0 0 0 0 0 0 0 0 0 0 0 0 0 0 0 0 0 0 0 0 0 0 0 0 0 0 0 0 0 0 0 0 0 0 0 0 0 0 0 0 0 0 0 0 0 0 0 0 0 0 0 0 0 0 0 0 0 0 0 0 0 0 0 0 0 0
0 0 0 0 0 0 0 0 0 0 0 0 0 0 0 0 0 0 0 0 0 0 0 0 0 0 0 0 0 0 0 0 0 0 0 0 0 0 0 0 0 0 0 0 0 0 0 0 0 0 0 0 0 0 0 0 0 0 0 0 0 0 0 0 0 0 0 0 0 0 0 0 0 0 0 0 0 0 0 0 0 0 0 0 0
0 0 0 0 0 0 0 0 0 0 0 0 0 0 0 0 0 0 0 0 0 0 0 0 0 0 0 0 0 0 0 0 0 0 0 0 0 0 0 0 0 0 0 0 0 0 0 0 0 0 0 0 0 0 0 0 0 0 0 0 0 0 0 0 0 0 0 0 0 0 0 0 0 0 0 0 0 0 0 0 0 0 0 0 0
0 0 0 0 0 0 0 0 0 0 0 0 0 0 0 0 0 0 0 0 0 0 0 0 0 0 0 0 0 0 0 0 0 0 0 0 0 0 0 0 0 0 0 0 0 0 0 0 0 0 0 0 0 0 0 0 0 0 0 0 0 0 0 0 0 0 0 0 0 0 0 0 0 0 0 0 0 0 0 0 0 0 0 0 0
0 0 0 0 0 0 0 0 0 0 0 0 0 0 0 0 0 0 0 0 0 0 0 0 0 0 0 0 0 0 0 0 0 0 0 0 0 0 0 0 0 0 0 0 0 0 0 0 0 0 0 0 0 0 0 0 0 0 0 0 0 0 0 0 0 0 0 0 0 0 0 0 0 0 0 0 0 0 0 0 0 0 0 0 0
0 0 0 0 0 0 0 0 0 0 0 0 0 0 0 0 0 0 0 0 0 0 0 0 0 0 0 0 0 0 0 0 0 0 0 0 0 0 0 0 0 0 0 0 0 0 0 0 0 0 0 0 0 0 0 0 0 0 0 0 0 0 0 0 0 0 0 0 0 0 0 0 0 0 0 0 0 0 0 0 0 0 0 0 0
0 0 0 0 0 0 0 0 0 0 0 0 0 0 0 0 0 0 0 0 0 0 0 0 0 0 0 0 0 0 0 0 0 0 0 0 0 0 0 0 0 0 0 0 0 0 0 0 0 0 0 0 0 0 0 0 0 0 0 0 0 0 0 0 0 0 0 0 0 0 0 0 0 0 0 0 0 0 0 0 0 0 0 0 0
0 0 0 0 0 0 0 0 0 0 0 0 0 0 0 0 0 0 0 0 0 0 0 0 0 0 0 0 0 0 0 0 0 0 0 0 0 0 0 0 0 0 0 0 0 0 0 0 0 0 0 0 0 0 0 0 0 0 0 0 0 0 0 0 0 0 0 0 0 0 0 0 0 0 0 0 0 0 0 0 0 0 0 0 0
0 0 0 0 0 0 0 0 0 0 0 0 0 0 0 0 0 0 0 0 0 0 0 0 0 0 0 0 0 0 0 0 0 0 0 0 0 0 0 0 0 0 0 0 0 0 0 0 0 0 0 0 0 0 0 0 0 0 0 0 0 0 0 0 0 0 0 0 0 0 0 0 0 0 0 0 0 0 0 0 0 0 0 0 0
71 0 0 0 0 0 0 0 0 0 0 0 0 0 0 0 0 0 0 0 0 0 0 0 0 0 0 0 0 0 0 0 0 0 0 0 0 0 0 0 0 0 0 0 0 0 0 0 0 0 0 0 0 0 0 0 0 0 0 0 0 0 0 0 0 0 0 0 0 0 0 0 0 0 0 0 0 0 0 0 0 0 0 0 0
296 168 125 14 0 0 0 0 0 0 0 0 0 0 0 0 0 0 0 0 0 0 0 0 0 0 0 0 0 0 0 0 0 0 0 0 0 0 0 0 0 0 0 0 0 0 0 0 0 0 0 0 0 0 0 0 0 0 0 0 0 0 0 0 0 0 0 0 0 0 0 0 0 0 0 0 0 0 0 0 0 0 0 0 0
299 288 215 197 0 0 0 0 0 0 0 0 0 0 0 0 0 0 0 0 0 0 0 0 0 0 0 0 0 0 0 0 0 0 0 0 0 0 0 0 0 0 0 0 0 0 61 162 187 192 0 0 0 0 0 0 0 6 0 0 0 0 0 0 0 0 0 0 0 0 0 0 0 0 0 0 0 0 0 0 0 0 0 0 0
300 290 288 229 228 161 135 153 154 175 173 177 127 95 0 0 0 175 230 235 330 338 340 267 34 0 0 0 0 0 0 0 0 0 0 0 0 0 0 0 0 0 0 0 127 183 202 218 208 195 7 0 131 98 0 0 0 0 0 0 0 0 0 0 0 0 0 0 0 0 0 0 0 0 0 0 0 0 0 0 0 0 0 0 0
280 315 315 292 261 248 264 248 207 180 176 171 202 222 247 263 274 300 334 364 383 398 426 445 450 468 479 326 119 0 0 0 0 0 0 0 0 0 0 0 60 56 0 155 235 268 157 192 56 6 0 0 2 2 0 0 0 0 0 0 0 0 0 0 0 0 0 0 0 0 0 0 0 0 0 0 0 0 0 0 0 0 0 0 0
293 346 328 314 290 268 257 266 274 267 254 242 244 251 255 282 288 305 313 317 338 358 398 426 463 494 508 536 552 561 531 426 222 191 160 0 0 0 233 280 315 340 344 348 357 335 280 189 22 177 184 3 0 0 0 0 4 0 0 0 0 0 0 0 0 0 0 0 0 0 0 0 0 0 0 0 0 0 0 0 0 0 0 0 0
49 172 265 269 280 265 259 250 238 223 204 27 0 22 116 126 136 222 247 0 194 326 334 350 384 397 422 457 486 509 531 550 534 428 394 430 495 522 516 455 408 388 426 437 401 412 408 204 213 59 26 0 0 0 0 2 0 0 1 0 0 0 0 0 6 0 0 0 0 0 0 0 0 0 0 0 0 0 0 0 0 0 0 0 0
Wind_Speed
25 24 23 23 23 23 21 19 18 17 16 15 14 16 18 19 nan nan nan nan nan nan nan 16 15 14 17 18 19 19 18 19 21 22 22 22 24 25 28 26 24 22 21 23 23 22 21 24 25 26 27 27 28 nan nan nan nan nan nan nan nan nan nan nan nan nan nan nan nan nan nan nan nan nan nan nan nan nan nan nan nan nan nan nan nan
23 23 24 25 24 22 18 16 14 13 12 13 12 15 nan nan nan nan nan nan nan 16 16 nan nan 13 15 17 17 17 17 19 21 22 22 23 23 23 27 24 21 19 21 23 22 22 23 25 24 26 27 28 29 29 29 29 28 28 nan nan nan nan nan nan nan nan nan nan nan nan nan nan nan nan nan nan nan nan nan nan nan nan nan nan nan
23 23 24 24 21 18 14 14 13 10 9 11 12 nan nan 19 nan nan nan nan nan 16 16 nan nan 14 15 16 15 15 17 19 20 21 22 21 21 21 22 23 21 20 20 20 21 21 23 24 25 25 27 27 28 28 28 28 27 28 28 nan nan nan nan nan nan nan nan nan nan nan nan nan nan nan nan nan nan nan nan nan nan nan nan nan nan
21 21 22 20 17 14 13 13 11 9 9 11 14 nan nan nan nan nan nan nan nan 16 14 15 16 15 15 16 14 15 16 18 18 19 20 20 20 20 20 20 23 25 26 25 20 20 21 23 23 24 25 26 27 27 26 25 25 26 27 27 27 nan nan nan nan nan nan nan nan nan nan nan nan nan nan nan nan nan nan nan nan nan nan nan nan
19 18 18 16 14 13 13 12 10 9 10 13 nan nan nan nan 18 18 nan nan nan 16 14 14 16 17 16 13 13 15 18 18 17 18 19 19 19 20 20 19 20 24 27 26 27 25 26 26 23 22 23 24 24 24 24 24 23 24 26 26 26 26 27 nan nan nan nan nan nan nan nan nan nan nan nan nan nan nan nan nan nan nan nan nan nan
17 16 14 13 12 12 13 13 11 10 11 13 nan nan nan nan 16 18 17 nan 17 15 15 15 16 16 15 12 13 17 18 19 17 17 16 17 18 19 19 18 18 19 20 26 26 25 24 25 24 25 25 29 24 24 25 23 23 22 23 25 25 24 25 27 29 nan nan nan nan nan nan nan nan nan nan nan nan nan nan nan nan nan nan nan nan
12 11 11 11 11 11 11 11 10 10 11 12 14 nan nan nan 16 18 15 16 nan 14 14 15 16 14 13 13 14 19 17 17 18 15 14 14 17 17 18 18 18 18 19 19 21 23 23 22 24 27 27 24 19 21 21 21 21 23 24 24 22 23 23 25 27 28 nan nan nan nan nan nan nan nan nan nan nan nan nan nan nan nan nan nan nan
10 9 10 10 11 12 10 10 10 10 11 12 13 14 nan nan nan 16 17 nan nan nan 13 16 15 13 14 13 10 15 15 16 17 14 14 14 15 16 17 17 18 19 20 19 19 19 23 24 25 27 25 21 16 19 18 19 18 19 20 23 22 21 21 22 26 27 27 nan nan nan nan nan nan nan nan nan nan nan nan nan nan nan nan nan nan
11 10 10 10 13 12 11 11 11 11 12 13 14 13 14 16 nan 14 14 nan 14 13 14 15 15 13 nan 14 10 12 14 14 14 14 14 15 15 15 16 18 18 19 18 18 18 17 22 25 25 25 23 18 15 16 17 18 18 17 18 18 19 21 17 19 22 24 25 25 26 26 nan nan nan nan nan nan nan nan nan nan nan nan nan nan nan
11 10 11 12 13 14 13 13 12 12 13 13 12 12 13 15 15 13 nan nan 12 13 15 16 15 14 16 16 14 14 13 13 14 16 15 15 15 16 16 17 18 17 17 17 17 16 16 18 22 22 21 18 17 17 18 16 14 16 17 16 16 18 20 19 18 19 21 21 22 23 24 nan nan nan nan nan nan nan nan nan nan nan nan nan nan
11 10 11 11 12 12 12 13 12 12 13 13 12 12 13 nan nan 14 nan nan 12 16 17 17 16 15 16 16 14 13 13 14 15 16 16 14 15 nan nan 18 17 16 16 16 16 15 15 13 nan nan nan nan 18 nan 19 19 18 18 19 18 19 18 18 19 16 18 18 20 20 18 20 22 nan nan nan nan nan nan nan nan nan nan nan nan nan
9 8 8 8 8 9 11 11 11 11 12 12 12 11 12 nan 15 16 16 14 14 17 19 19 17 15 15 14 13 11 12 12 14 15 14 14 13 14 15 15 16 15 14 15 15 14 13 13 14 14 12 15 19 nan nan nan 20 20 20 21 21 20 21 20 17 17 16 17 16 16 16 20 17 15 16 nan nan nan nan nan nan nan nan nan nan
7 7 8 6 8 9 10 10 10 11 11 11 11 12 12 14 15 15 16 15 14 15 17 18 16 14 13 12 11 11 13 nan nan nan nan 13 13 15 15 15 16 16 14 13 14 nan 15 14 15 15 14 13 nan nan nan nan nan 21 21 21 24 24 22 22 19 18 18 18 18 20 19 18 15 13 12 13 17 18 19 nan nan nan nan nan nan
6 7 8 7 8 8 9 9 10 12 13 14 14 14 14 15 15 17 14 15 13 12 13 16 16 13 15 13 12 15 15 17 18 18 nan nan nan nan 16 16 17 16 16 16 16 17 nan nan nan nan nan nan nan nan nan nan nan nan 22 22 24 24 23 24 23 22 21 21 21 21 20 20 19 13 12 13 13 14 15 14 16 nan nan nan nan
7 7 6 6 9 10 11 11 11 12 14 15 15 15 14 15 15 17 16 15 15 14 14 15 15 15 16 16 nan nan nan nan 18 19 nan nan nan nan nan nan nan nan 17 18 18 17 nan nan nan nan nan nan nan nan nan nan 21 24 24 24 26 26 26 27 28 27 26 25 25 25 23 21 20 21 15 12 13 14 13 15 12 12 nan nan nan
8 8 9 9 10 11 12 12 12 13 14 14 14 14 14 15 16 17 18 17 14 13 13 12 13 17 16 nan nan nan nan nan nan nan nan nan nan nan nan nan nan 19 18 20 19 nan nan nan nan nan nan nan nan nan nan nan 19 20 23 23 27 30 31 30 31 32 30 29 27 27 25 24 22 20 18 15 11 12 12 11 13 16 12 nan nan
10 11 11 12 13 13 13 13 14 15 15 15 14 13 13 14 15 16 15 17 15 15 13 14 12 13 16 nan nan nan nan nan nan nan nan nan nan nan nan nan nan nan 20 20 nan nan nan nan nan nan nan nan nan nan nan nan nan 18 19 24 27 27 30 33 32 34 33 32 31 30 30 29 27 27 26 23 21 18 16 16 14 15 15 17 15
13 13 13 14 15 14 14 15 15 15 15 15 15 15 14 14 12 14 15 13 16 17 16 15 15 15 nan nan nan nan nan nan nan nan nan nan nan nan nan nan nan nan nan nan nan nan nan nan nan nan nan nan nan nan nan nan nan 18 17 20 26 27 25 31 34 36 36 35 34 33 nan nan nan nan nan nan 25 25 25 23 23 23 22 18 20
15 15 14 14 15 14 14 14 15 15 15 15 14 13 13 13 14 15 16 17 16 17 17 15 16 15 nan nan nan nan nan nan nan nan nan nan nan nan nan nan nan nan 21 nan nan nan nan nan nan nan nan nan nan nan nan nan nan nan 23 24 24 nan nan nan nan nan nan nan nan nan nan nan nan nan nan nan nan nan nan nan nan nan 26 nan 28
15 15 14 13 14 13 13 14 14 15 14 12 12 12 13 15 14 14 16 13 13 17 15 14 16 13 15 17 nan nan nan nan nan nan nan nan nan nan nan nan 24 nan nan nan nan nan nan nan nan nan nan nan nan nan nan nan nan nan nan nan nan nan nan nan nan nan nan nan nan nan nan nan nan nan nan nan nan nan nan nan nan nan nan nan nan
16 15 13 12 11 11 11 12 13 13 12 13 12 11 11 13 12 12 12 12 11 13 15 12 14 17 18 nan nan nan nan nan nan nan nan nan nan nan nan nan nan nan nan nan nan nan nan nan nan nan nan nan nan nan nan nan nan nan nan nan nan nan nan nan nan nan nan nan nan nan nan nan nan nan nan nan nan nan nan nan nan nan nan nan nan
16 14 12 11 11 12 11 10 10 12 12 12 12 10 9 9 9 10 10 11 11 12 11 15 17 18 nan 16 19 nan nan nan nan nan nan nan nan nan nan nan nan nan nan nan nan nan nan nan nan nan nan nan nan nan nan nan nan nan nan nan nan nan nan nan nan nan nan nan nan nan nan nan nan nan nan nan nan nan nan nan nan nan nan nan nan
nan 13 12 11 10 10 11 10 10 10 12 12 12 10 8 8 10 11 10 11 11 12 14 14 14 17 17 16 17 nan nan nan nan nan nan nan nan nan nan nan nan nan nan nan nan nan nan nan nan nan nan nan nan nan nan nan nan nan nan nan nan nan nan nan nan nan nan nan nan nan nan nan nan nan nan nan nan nan nan nan nan nan nan nan nan
nan nan nan nan nan 11 11 11 9 9 9 11 11 10 10 11 12 12 11 12 13 14 14 14 13 15 14 16 14 15 nan nan nan nan nan nan nan nan nan nan nan nan nan nan nan nan nan nan nan nan nan nan nan nan nan nan nan nan nan nan nan nan nan nan nan nan nan nan nan nan nan nan nan nan nan nan nan nan nan nan nan nan nan nan nan
nan nan nan nan nan nan nan 10 9 7 8 10 10 11 11 10 10 11 12 12 11 13 13 12 13 14 13 14 15 16 nan nan nan nan nan nan nan nan nan nan nan nan nan nan nan nan nan nan nan nan nan nan nan nan nan nan nan nan nan nan nan nan nan nan nan nan nan nan nan nan nan nan nan nan nan nan nan nan nan nan nan nan nan nan nan
nan nan nan nan nan nan nan nan nan 10 9 9 9 9 8 8 8 9 9 9 11 11 11 12 11 12 14 16 15 16 nan nan nan nan nan nan nan nan nan nan nan nan nan nan nan nan nan nan nan nan nan nan nan nan nan nan nan nan nan nan nan nan nan nan nan nan nan nan nan nan nan nan nan nan nan nan nan nan nan nan nan nan nan nan nan
nan nan nan nan nan nan nan nan nan 14 13 12 12 12 11 11 10 11 12 11 11 12 12 13 13 13 13 14 16 17 19 nan nan nan nan nan nan nan nan nan nan nan nan nan nan nan nan nan nan nan nan nan nan nan nan nan nan nan nan nan nan nan nan nan nan nan nan nan nan nan nan nan nan nan nan nan nan nan nan nan nan nan nan nan nan
nan nan nan nan nan nan nan nan nan 16 16 16 16 16 16 16 16 16 16 14 14 13 12 12 13 14 15 16 17 16 18 19 nan nan nan nan nan nan nan nan nan nan nan nan nan nan nan nan nan nan nan nan nan nan nan nan nan nan nan nan nan nan nan nan nan nan nan nan nan nan nan nan nan nan nan nan nan nan nan nan nan nan nan nan nan
nan nan nan nan nan nan nan nan nan 16 17 17 17 18 18 18 18 17 16 15 16 13 13 13 14 15 16 17 16 17 17 19 20 21 nan nan nan nan nan nan nan nan nan nan nan nan nan nan nan nan nan nan nan nan nan nan nan nan nan nan nan nan nan nan nan nan nan nan nan nan nan nan nan nan nan nan nan nan nan nan nan nan nan nan nan
nan nan nan nan nan nan nan nan nan 16 16 16 16 17 17 18 17 17 15 16 17 16 15 nan 16 17 18 17 17 17 18 19 19 20 nan nan nan nan nan nan nan nan nan nan nan nan nan nan nan nan nan nan nan nan nan nan nan nan nan nan nan nan nan nan nan nan nan nan nan nan nan nan nan nan nan nan nan nan nan nan nan nan nan nan nan
nan nan nan nan nan nan nan nan nan 15 16 15 14 15 15 15 15 15 15 nan nan nan nan nan 16 18 19 18 17 18 19 19 20 21 nan nan nan nan nan nan nan nan nan nan nan nan nan nan nan nan nan nan nan nan nan nan nan nan nan nan nan nan nan nan nan nan nan nan nan nan nan nan nan nan nan nan nan nan nan nan nan nan nan nan nan
nan nan nan nan nan nan nan nan nan 15 15 15 15 14 14 14 13 nan nan nan nan nan nan nan nan nan nan 19 17 18 20 22 22 22 22 nan nan nan nan nan nan nan nan nan nan nan nan nan nan nan nan nan nan nan nan nan nan nan nan nan nan nan nan nan nan nan nan nan nan nan nan nan nan nan nan nan nan nan nan nan nan nan nan nan nan
nan nan nan nan nan nan nan nan nan 15 15 nan nan 15 15 15 nan nan nan nan nan nan nan nan nan nan nan nan nan nan 19 21 20 21 22 nan nan nan nan nan nan nan nan nan nan nan nan nan nan nan nan nan nan nan nan nan nan nan nan nan nan nan nan nan nan nan nan nan nan nan nan nan nan nan nan nan nan nan nan nan nan nan nan nan nan
nan nan nan nan nan nan nan nan nan nan nan nan nan nan 16 16 nan nan nan nan nan nan nan nan nan nan nan nan nan nan nan nan 20 21 nan nan nan nan nan nan nan nan nan nan nan nan nan nan nan nan nan nan nan nan nan nan nan nan nan nan nan nan nan nan nan nan nan nan nan nan nan nan nan nan nan nan nan nan nan nan nan nan nan nan nan
nan nan nan nan nan nan nan nan nan nan nan nan nan nan nan nan nan nan nan nan nan nan nan nan nan nan nan nan nan nan nan nan nan nan nan nan nan nan nan nan nan nan nan nan nan nan nan nan nan nan nan nan nan nan nan nan nan nan nan nan nan nan nan nan nan nan nan nan nan nan nan nan nan nan nan nan nan nan nan nan nan nan nan nan nan
nan nan nan nan nan nan nan nan nan nan nan nan nan nan nan nan nan nan nan nan nan nan nan nan nan nan nan nan nan nan nan nan nan nan nan nan nan nan nan nan nan nan nan nan nan nan nan nan nan nan nan nan nan nan nan nan nan nan nan nan nan nan nan nan nan nan nan nan nan nan nan nan nan nan nan nan nan nan nan nan nan nan nan nan nan
nan nan nan nan nan nan nan nan nan nan nan nan nan nan nan nan nan nan nan nan nan nan nan nan nan nan nan nan nan nan nan nan nan nan nan nan nan nan nan nan nan nan nan nan nan nan nan nan nan nan nan nan nan nan nan nan nan nan nan nan nan nan nan nan nan nan nan nan nan nan nan nan nan nan nan nan nan nan nan nan nan nan nan nan nan
nan nan nan nan nan nan nan nan nan nan nan nan nan nan nan nan nan nan nan nan nan nan nan nan nan nan nan nan nan nan nan nan nan nan nan nan nan nan nan nan nan nan nan nan nan nan nan nan nan nan nan nan nan nan nan nan nan nan nan nan nan nan nan nan nan nan nan nan nan nan nan nan nan nan nan nan nan nan nan nan nan nan nan nan nan
nan nan nan nan nan nan nan nan nan nan nan nan nan nan nan nan nan nan nan nan nan nan nan nan nan nan nan nan nan nan nan nan nan nan nan nan nan nan nan nan nan nan nan nan nan nan nan nan nan nan nan nan nan nan nan nan nan nan nan nan nan nan nan nan nan nan nan nan nan nan nan nan nan nan nan nan nan nan nan nan nan nan nan nan nan
nan nan nan nan nan nan nan nan nan nan nan nan nan nan nan nan nan nan nan nan nan nan nan nan nan nan nan nan nan nan nan nan nan nan nan nan nan nan nan nan nan nan nan nan nan nan nan nan nan nan nan nan nan nan nan nan nan nan nan nan nan nan nan nan nan nan nan nan nan nan nan nan nan nan nan nan nan nan nan nan nan nan nan nan nan
nan nan nan nan nan nan nan nan nan nan nan nan nan nan nan nan nan nan nan nan nan nan nan nan nan nan nan nan nan nan nan nan nan nan nan nan nan nan nan nan nan nan nan nan nan nan nan nan nan nan nan nan nan nan nan nan nan nan nan nan nan nan nan nan nan nan nan nan nan nan nan nan nan nan nan nan nan nan nan nan nan nan nan nan nan
nan nan nan nan nan nan nan nan nan nan nan nan nan nan nan nan nan nan nan nan nan nan nan nan nan nan nan nan nan nan nan nan nan nan nan nan nan nan nan nan nan nan nan nan nan nan nan nan nan nan nan nan nan nan nan nan nan nan nan nan nan nan nan nan nan nan nan nan nan nan nan nan nan nan nan nan nan nan nan nan nan nan nan nan nan
nan nan nan nan nan nan nan nan nan nan nan nan nan nan nan nan nan nan nan nan nan nan nan nan nan nan nan nan nan nan nan nan nan nan nan nan nan nan nan nan nan nan nan nan nan nan nan nan nan nan nan nan nan nan nan nan nan nan nan nan nan nan nan nan nan nan nan nan nan nan nan nan nan nan nan nan nan nan nan nan nan nan nan nan nan
nan nan nan nan nan nan nan nan nan nan nan nan nan nan nan nan nan nan nan nan nan nan nan nan nan nan nan nan nan nan nan nan nan nan nan nan nan nan nan nan nan nan nan nan nan nan nan nan nan nan nan nan nan nan nan nan nan nan nan nan nan nan nan nan nan nan nan nan nan nan nan nan nan nan nan nan nan nan nan nan nan nan nan nan nan
nan nan nan nan nan nan nan nan nan nan nan nan nan nan nan nan nan nan nan nan nan nan nan nan nan nan nan nan nan nan nan nan nan nan nan nan nan nan nan nan nan nan nan nan nan nan nan nan nan nan nan nan nan nan nan nan nan nan nan nan nan nan nan nan nan nan nan nan nan nan nan nan nan nan nan nan nan nan nan nan nan nan nan nan nan
33 33 34 nan nan nan nan nan nan nan nan nan nan nan nan nan nan nan nan nan nan nan nan nan nan nan nan nan nan nan nan nan nan nan nan nan nan nan nan nan nan nan nan nan nan nan nan nan nan nan nan nan nan nan nan nan nan nan nan nan nan nan nan nan nan nan nan nan nan nan nan nan nan nan nan nan nan nan nan nan nan nan nan nan nan
33 34 36 36 nan nan nan nan nan nan nan nan nan nan nan nan nan nan nan nan nan nan nan nan nan nan nan nan nan nan nan nan nan nan nan nan nan nan nan nan nan nan nan nan nan nan nan 35 35 33 nan nan nan nan nan nan nan nan nan nan nan nan nan nan nan nan nan nan nan nan nan nan nan nan nan nan nan nan nan nan nan nan nan nan nan
32 32 34 34 35 35 35 36 39 40 40 45 46 nan nan nan nan 37 35 34 32 31 30 29 nan nan nan nan nan nan nan nan nan nan nan nan nan nan nan nan nan nan nan nan 44 42 39 39 38 37 nan nan 40 nan nan nan nan nan nan nan nan nan nan nan nan nan nan nan nan nan nan nan nan nan nan nan nan nan nan nan nan nan nan nan nan
36 35 34 35 36 38 39 40 41 41 42 44 48 48 48 46 42 39 38 36 35 34 32 33 34 34 35 36 36 nan nan nan nan nan nan nan nan nan nan nan nan nan nan 47 49 49 44 39 nan nan nan nan nan nan nan nan nan nan nan nan nan nan nan nan nan nan nan nan nan nan nan nan nan nan nan nan nan nan nan nan nan nan nan nan nan
39 38 38 40 41 42 43 42 43 44 43 45 49 49 49 48 45 42 40 39 38 38 37 38 39 39 38 38 39 40 40 39 39 44 49 nan nan nan 46 45 46 45 43 48 51 51 53 53 nan 55 55 nan nan nan nan nan nan nan nan nan nan nan nan nan nan nan nan nan nan nan nan nan nan nan nan nan nan nan nan nan nan nan nan nan nan
nan 39 41 43 44 44 44 44 47 48 46 nan nan nan 51 50 48 45 44 nan 43 42 42 41 42 43 42 43 42 42 43 42 42 48 53 55 51 51 49 50 48 46 45 54 55 55 54 56 56 nan nan nan nan nan nan nan nan nan nan nan nan nan nan nan nan nan nan nan nan nan nan nan nan nan nan nan nan nan nan nan nan nan nan nan nan
Wind_Direction
278 281 281 277 276 276 276 269 260 251 247 240 250 262 263 268 nan nan nan nan nan nan nan 266 269 265 265 259 253 251 249 243 239 238 237 237 236 238 240 241 248 254 257 258 252 253 257 258 261 264 263 263 263 nan nan nan nan nan nan nan nan nan nan nan nan nan nan nan nan nan nan nan nan nan nan nan nan nan nan nan nan nan nan nan nan
279 282 283 277 271 270 266 255 247 239 242 252 248 265 nan nan nan nan nan nan nan 275 275 nan nan 260 258 257 254 252 248 246 243 241 239 237 237 239 244 244 249 256 255 252 252 248 255 268 264 265 265 266 265 266 266 267 267 268 nan nan nan nan nan nan nan nan nan nan nan nan nan nan nan nan nan nan nan nan nan nan nan nan nan nan nan
279 280 276 272 266 262 250 236 235 235 244 254 255 nan nan 262 nan nan nan nan nan 269 273 nan nan 257 255 259 258 254 249 246 247 247 245 243 243 244 243 247 251 250 248 255 255 251 253 266 269 269 268 268 267 266 265 266 267 268 270 nan nan nan nan nan nan nan nan nan nan nan nan nan nan nan nan nan nan nan nan nan nan nan nan nan nan
278 274 270 262 256 248 238 232 233 238 249 258 260 nan nan nan nan nan nan nan nan 265 262 274 266 258 260 261 260 258 254 252 253 253 250 247 247 244 243 241 243 247 246 243 248 256 255 268 272 271 270 270 269 267 267 266 266 269 268 269 269 nan nan nan nan nan nan nan nan nan nan nan nan nan nan nan nan nan nan nan nan nan nan nan nan
274 271 265 256 249 242 236 235 236 247 251 257 nan nan nan nan 264 271 nan nan nan 266 265 262 263 263 265 264 262 264 258 256 251 249 251 249 245 242 239 237 237 239 239 240 241 241 246 243 252 265 269 270 269 267 266 267 265 268 270 270 268 268 269 nan nan nan nan nan nan nan nan nan nan nan nan nan nan nan nan nan nan nan nan nan nan
267 256 254 251 249 247 244 239 242 252 254 254 nan nan nan nan 274 274 275 nan 272 268 270 261 256 262 263 265 266 261 256 252 244 251 249 248 243 238 237 233 236 237 239 240 243 243 244 251 252 255 258 252 252 258 257 263 262 264 266 273 274 271 268 268 273 nan nan nan nan nan nan nan nan nan nan nan nan nan nan nan nan nan nan nan nan
254 256 251 250 258 258 249 248 253 255 251 247 257 nan nan nan 274 275 273 275 nan 258 255 254 258 262 251 244 262 265 258 259 255 250 250 247 239 235 236 236 236 238 239 240 242 247 251 254 255 260 257 255 261 262 256 259 262 263 265 263 272 273 273 271 271 272 nan nan nan nan nan nan nan nan nan nan nan nan nan nan nan nan nan nan nan
252 250 251 255 263 263 257 258 262 257 251 249 251 258 nan nan nan 274 280 nan nan nan 240 244 243 251 250 252 225 252 256 251 251 247 246 241 235 234 235 237 238 239 242 242 242 245 256 258 261 265 273 276 268 265 262 265 270 263 267 267 271 273 274 273 276 276 274 nan nan nan nan nan nan nan nan nan nan nan nan nan nan nan nan nan nan
252 248 253 260 263 263 266 267 260 255 251 248 249 255 263 261 nan 256 271 nan 275 259 241 238 239 238 nan 246 241 243 248 249 247 243 239 236 230 229 231 233 237 240 242 244 245 247 251 254 258 261 270 277 279 273 269 268 269 267 264 273 279 285 291 282 278 272 271 272 276 275 nan nan nan nan nan nan nan nan nan nan nan nan nan nan nan
253 254 256 259 260 265 268 268 262 254 253 249 246 246 254 263 261 254 nan nan 274 259 244 240 242 239 236 239 229 236 238 238 239 236 233 233 231 232 234 236 238 239 243 246 247 249 250 248 253 259 260 260 257 251 250 250 252 263 269 268 282 280 281 280 292 293 287 276 269 270 277 nan nan nan nan nan nan nan nan nan nan nan nan nan nan
257 256 259 257 256 264 265 265 263 257 251 244 244 246 250 nan nan 261 nan nan 268 254 248 245 246 241 234 228 228 230 232 232 234 233 232 236 242 nan nan 240 241 241 243 245 247 248 248 246 nan nan nan nan 253 nan 245 241 243 251 265 285 286 292 298 300 292 288 288 286 281 276 267 271 nan nan nan nan nan nan nan nan nan nan nan nan nan
243 241 240 248 255 260 260 265 261 253 249 247 245 254 264 nan 262 267 262 253 248 256 253 249 242 243 243 229 219 228 238 237 235 233 232 237 241 241 244 244 243 242 241 243 245 248 250 247 251 249 250 249 246 nan nan nan 249 254 259 266 284 290 293 293 294 295 294 287 282 276 272 265 264 276 286 nan nan nan nan nan nan nan nan nan nan
231 231 231 240 240 250 256 260 255 251 252 254 256 258 257 260 259 256 267 264 251 252 251 247 249 246 248 247 231 225 239 nan nan nan nan 233 239 241 244 245 244 246 247 250 252 nan 252 249 252 255 251 256 nan nan nan nan nan 258 261 265 274 281 284 286 291 298 293 285 273 268 269 273 287 302 299 300 297 293 288 nan nan nan nan nan nan
239 235 230 232 246 254 259 259 255 248 251 255 258 260 261 260 260 253 235 258 252 256 257 249 232 261 271 254 239 235 235 239 237 229 nan nan nan nan 246 247 250 252 253 254 255 256 nan nan nan nan nan nan nan nan nan nan nan nan 260 264 274 279 277 278 280 290 297 289 280 276 269 268 263 278 314 312 288 268 270 281 292 nan nan nan nan
228 242 251 234 246 255 258 256 253 256 257 261 261 264 265 267 267 269 260 233 249 240 239 233 256 257 254 257 nan nan nan nan 234 229 nan nan nan nan nan nan nan nan 252 255 258 257 nan nan nan nan nan nan nan nan nan nan 262 259 261 259 268 270 271 273 278 284 287 286 283 277 276 278 278 265 265 269 265 267 267 261 274 294 nan nan nan
231 244 249 253 257 260 262 267 263 260 264 266 266 268 266 263 259 265 269 268 254 249 235 246 264 275 256 nan nan nan nan nan nan nan nan nan nan nan nan nan nan 255 255 258 259 nan nan nan nan nan nan nan nan nan nan nan 263 260 255 257 263 267 268 268 275 279 278 280 280 275 273 274 273 281 292 293 290 285 272 269 258 262 278 nan nan
243 253 259 265 263 264 268 268 268 264 265 269 269 273 272 267 266 268 275 277 268 253 240 250 266 240 274 nan nan nan nan nan nan nan nan nan nan nan nan nan nan nan 260 261 nan nan nan nan nan nan nan nan nan nan nan nan nan 273 267 262 265 267 269 273 273 274 277 276 276 273 266 263 259 256 257 263 268 277 280 274 267 272 272 263 256
247 252 257 261 266 266 266 268 266 265 266 267 266 265 271 272 272 270 269 255 268 264 258 245 249 249 nan nan nan nan nan nan nan nan nan nan nan nan nan nan nan nan nan nan nan nan nan nan nan nan nan nan nan nan nan nan nan 277 276 271 263 261 263 275 274 273 273 272 270 268 nan nan nan nan nan nan 261 264 267 267 265 262 263 276 270
249 250 254 254 259 264 270 267 263 265 263 264 269 274 273 269 263 264 259 256 260 263 274 271 259 253 nan nan nan nan nan nan nan nan nan nan nan nan nan nan nan nan 264 nan nan nan nan nan nan nan nan nan nan nan nan nan nan nan 266 265 263 nan nan nan nan nan nan nan nan nan nan nan nan nan nan nan nan nan nan nan nan nan 258 nan 258
253 254 253 253 257 258 260 262 263 261 263 266 271 267 263 255 260 261 268 269 267 267 270 276 283 271 249 247 nan nan nan nan nan nan nan nan nan nan nan nan 261 nan nan nan nan nan nan nan nan nan nan nan nan nan nan nan nan nan nan nan nan nan nan nan nan nan nan nan nan nan nan nan nan nan nan nan nan nan nan nan nan nan nan nan nan
246 253 254 256 254 254 254 257 262 263 268 263 263 270 276 274 275 274 278 274 270 271 274 282 272 259 252 nan nan nan nan nan nan nan nan nan nan nan nan nan nan nan nan nan nan nan nan nan nan nan nan nan nan nan nan nan nan nan nan nan nan nan nan nan nan nan nan nan nan nan nan nan nan nan nan nan nan nan nan nan nan nan nan nan nan
240 242 246 248 255 251 250 255 258 263 263 265 264 265 266 275 284 283 278 277 268 274 280 263 259 268 nan 270 265 nan nan nan nan nan nan nan nan nan nan nan nan nan nan nan nan nan nan nan nan nan nan nan nan nan nan nan nan nan nan nan nan nan nan nan nan nan nan nan nan nan nan nan nan nan nan nan nan nan nan nan nan nan nan nan nan
nan 230 234 238 247 253 252 250 252 259 263 267 268 268 267 271 272 272 278 281 278 279 268 277 277 275 283 285 282 nan nan nan nan nan nan nan nan nan nan nan nan nan nan nan nan nan nan nan nan nan nan nan nan nan nan nan nan nan nan nan nan nan nan nan nan nan nan nan nan nan nan nan nan nan nan nan nan nan nan nan nan nan nan nan nan
nan nan nan nan nan 247 248 249 255 258 267 270 269 268 265 264 268 272 273 273 273 278 281 287 287 281 287 286 290 284 nan nan nan nan nan nan nan nan nan nan nan nan nan nan nan nan nan nan nan nan nan nan nan nan nan nan nan nan nan nan nan nan nan nan nan nan nan nan nan nan nan nan nan nan nan nan nan nan nan nan nan nan nan nan nan
nan nan nan nan nan nan nan 252 251 252 261 267 265 266 267 267 271 272 274 281 282 284 285 292 293 291 291 283 283 281 nan nan nan nan nan nan nan nan nan nan nan nan nan nan nan nan nan nan nan nan nan nan nan nan nan nan nan nan nan nan nan nan nan nan nan nan nan nan nan nan nan nan nan nan nan nan nan nan nan nan nan nan nan nan nan
nan nan nan nan nan nan nan nan nan 233 235 243 251 252 261 267 269 274 280 276 274 281 281 285 287 283 277 279 282 281 nan nan nan nan nan nan nan nan nan nan nan nan nan nan nan nan nan nan nan nan nan nan nan nan nan nan nan nan nan nan nan nan nan nan nan nan nan nan nan nan nan nan nan nan nan nan nan nan nan nan nan nan nan nan nan
nan nan nan nan nan nan nan nan nan 238 234 235 238 244 248 251 255 256 259 267 275 276 278 288 290 289 287 282 278 274 277 nan nan nan nan nan nan nan nan nan nan nan nan nan nan nan nan nan nan nan nan nan nan nan nan nan nan nan nan nan nan nan nan nan nan nan nan nan nan nan nan nan nan nan nan nan nan nan nan nan nan nan nan nan nan
nan nan nan nan nan nan nan nan nan 243 239 239 242 247 252 255 251 254 257 255 270 277 281 288 292 295 292 279 278 280 276 280 nan nan nan nan nan nan nan nan nan nan nan nan nan nan nan nan nan nan nan nan nan nan nan nan nan nan nan nan nan nan nan nan nan nan nan nan nan nan nan nan nan nan nan nan nan nan nan nan nan nan nan nan nan
nan nan nan nan nan nan nan nan nan 249 249 249 251 252 253 255 260 263 265 263 266 274 276 285 285 284 282 291 288 284 281 279 277 277 nan nan nan nan nan nan nan nan nan nan nan nan nan nan nan nan nan nan nan nan nan nan nan nan nan nan nan nan nan nan nan nan nan nan nan nan nan nan nan nan nan nan nan nan nan nan nan nan nan nan nan
nan nan nan nan nan nan nan nan nan 244 251 253 255 258 257 255 259 259 264 266 264 262 270 nan 280 280 279 281 282 284 280 283 283 282 nan nan nan nan nan nan nan nan nan nan nan nan nan nan nan nan nan nan nan nan nan nan nan nan nan nan nan nan nan nan nan nan nan nan nan nan nan nan nan nan nan nan nan nan nan nan nan nan nan nan nan
nan nan nan nan nan nan nan nan nan 240 240 245 252 255 258 260 256 257 253 nan nan nan nan nan 274 278 281 284 283 283 282 281 278 277 nan nan nan nan nan nan nan nan nan nan nan nan nan nan nan nan nan nan nan nan nan nan nan nan nan nan nan nan nan nan nan nan nan nan nan nan nan nan nan nan nan nan nan nan nan nan nan nan nan nan nan
nan nan nan nan nan nan nan nan nan 242 243 239 244 250 251 252 255 nan nan nan nan nan nan nan nan nan nan 281 285 286 282 279 279 279 281 nan nan nan nan nan nan nan nan nan nan nan nan nan nan nan nan nan nan nan nan nan nan nan nan nan nan nan nan nan nan nan nan nan nan nan nan nan nan nan nan nan nan nan nan nan nan nan nan nan nan
nan nan nan nan nan nan nan nan nan 250 250 nan nan 248 251 251 nan nan nan nan nan nan nan nan nan nan nan nan nan nan 283 286 285 283 283 nan nan nan nan nan nan nan nan nan nan nan nan nan nan nan nan nan nan nan nan nan nan nan nan nan nan nan nan nan nan nan nan nan nan nan nan nan nan nan nan nan nan nan nan nan nan nan nan nan nan
nan nan nan nan nan nan nan nan nan nan nan nan nan nan 260 257 nan nan nan nan nan nan nan nan nan nan nan nan nan nan nan nan 285 287 nan nan nan nan nan nan nan nan nan nan nan nan nan nan nan nan nan nan nan nan nan nan nan nan nan nan nan nan nan nan nan nan nan nan nan nan nan nan nan nan nan nan nan nan nan nan nan nan nan nan nan
nan nan nan nan nan nan nan nan nan nan nan nan nan nan nan nan nan nan nan nan nan nan nan nan nan nan nan nan nan nan nan nan nan nan nan nan nan nan nan nan nan nan nan nan nan nan nan nan nan nan nan nan nan nan nan nan nan nan nan nan nan nan nan nan nan nan nan nan nan nan nan nan nan nan nan nan nan nan nan nan nan nan nan nan nan
nan nan nan nan nan nan nan nan nan nan nan nan nan nan nan nan nan nan nan nan nan nan nan nan nan nan nan nan nan nan nan nan nan nan nan nan nan nan nan nan nan nan nan nan nan nan nan nan nan nan nan nan nan nan nan nan nan nan nan nan nan nan nan nan nan nan nan nan nan nan nan nan nan nan nan nan nan nan nan nan nan nan nan nan nan
nan nan nan nan nan nan nan nan nan nan nan nan nan nan nan nan nan nan nan nan nan nan nan nan nan nan nan nan nan nan nan nan nan nan nan nan nan nan nan nan nan nan nan nan nan nan nan nan nan nan nan nan nan nan nan nan nan nan nan nan nan nan nan nan nan nan nan nan nan nan nan nan nan nan nan nan nan nan nan nan nan nan nan nan nan
nan nan nan nan nan nan nan nan nan nan nan nan nan nan nan nan nan nan nan nan nan nan nan nan nan nan nan nan nan nan nan nan nan nan nan nan nan nan nan nan nan nan nan nan nan nan nan nan nan nan nan nan nan nan nan nan nan nan nan nan nan nan nan nan nan nan nan nan nan nan nan nan nan nan nan nan nan nan nan nan nan nan nan nan nan
nan nan nan nan nan nan nan nan nan nan nan nan nan nan nan nan nan nan nan nan nan nan nan nan nan nan nan nan nan nan nan nan nan nan nan nan nan nan nan nan nan nan nan nan nan nan nan nan nan nan nan nan nan nan nan nan nan nan nan nan nan nan nan nan nan nan nan nan nan nan nan nan nan nan nan nan nan nan nan nan nan nan nan nan nan
nan nan nan nan nan nan nan nan nan nan nan nan nan nan nan nan nan nan nan nan nan nan nan nan nan nan nan nan nan nan nan nan nan nan nan nan nan nan nan nan nan nan nan nan nan nan nan nan nan nan nan nan nan nan nan nan nan nan nan nan nan nan nan nan nan nan nan nan nan nan nan nan nan nan nan nan nan nan nan nan nan nan nan nan nan
nan nan nan nan nan nan nan nan nan nan nan nan nan nan nan nan nan nan nan nan nan nan nan nan nan nan nan nan nan nan nan nan nan nan nan nan nan nan nan nan nan nan nan nan nan nan nan nan nan nan nan nan nan nan nan nan nan nan nan nan nan nan nan nan nan nan nan nan nan nan nan nan nan nan nan nan nan nan nan nan nan nan nan nan nan
nan nan nan nan nan nan nan nan nan nan nan nan nan nan nan nan nan nan nan nan nan nan nan nan nan nan nan nan nan nan nan nan nan nan nan nan nan nan nan nan nan nan nan nan nan nan nan nan nan nan nan nan nan nan nan nan nan nan nan nan nan nan nan nan nan nan nan nan nan nan nan nan nan nan nan nan nan nan nan nan nan nan nan nan nan
nan nan nan nan nan nan nan nan nan nan nan nan nan nan nan nan nan nan nan nan nan nan nan nan nan nan nan nan nan nan nan nan nan nan nan nan nan nan nan nan nan nan nan nan nan nan nan nan nan nan nan nan nan nan nan nan nan nan nan nan nan nan nan nan nan nan nan nan nan nan nan nan nan nan nan nan nan nan nan nan nan nan nan nan nan
nan nan nan nan nan nan nan nan nan nan nan nan nan nan nan nan nan nan nan nan nan nan nan nan nan nan nan nan nan nan nan nan nan nan nan nan nan nan nan nan nan nan nan nan nan nan nan nan nan nan nan nan nan nan nan nan nan nan nan nan nan nan nan nan nan nan nan nan nan nan nan nan nan nan nan nan nan nan nan nan nan nan nan nan nan
nan nan nan nan nan nan nan nan nan nan nan nan nan nan nan nan nan nan nan nan nan nan nan nan nan nan nan nan nan nan nan nan nan nan nan nan nan nan nan nan nan nan nan nan nan nan nan nan nan nan nan nan nan nan nan nan nan nan nan nan nan nan nan nan nan nan nan nan nan nan nan nan nan nan nan nan nan nan nan nan nan nan nan nan nan
242 238 236 nan nan nan nan nan nan nan nan nan nan nan nan nan nan nan nan nan nan nan nan nan nan nan nan nan nan nan nan nan nan nan nan nan nan nan nan nan nan nan nan nan nan nan nan nan nan nan nan nan nan nan nan nan nan nan nan nan nan nan nan nan nan nan nan nan nan nan nan nan nan nan nan nan nan nan nan nan nan nan nan nan nan
248 242 238 239 nan nan nan nan nan nan nan nan nan nan nan nan nan nan nan nan nan nan nan nan nan nan nan nan nan nan nan nan nan nan nan nan nan nan nan nan nan nan nan nan nan nan nan 290 294 300 nan nan nan nan nan nan nan nan nan nan nan nan nan nan nan nan nan nan nan nan nan nan nan nan nan nan nan nan nan nan nan nan nan nan nan
252 249 243 240 241 245 248 251 254 254 251 244 244 nan nan nan nan 256 255 255 254 256 256 259 nan nan nan nan nan nan nan nan nan nan nan nan nan nan nan nan nan nan nan nan 279 280 283 288 292 295 nan nan 301 nan nan nan nan nan nan nan nan nan nan nan nan nan nan nan nan nan nan nan nan nan nan nan nan nan nan nan nan nan nan nan nan
249 247 246 245 247 251 252 253 254 254 252 247 246 246 246 245 251 254 254 255 256 256 258 259 260 263 269 275 277 nan nan nan nan nan nan nan nan nan nan nan nan nan nan 281 279 279 281 282 nan nan nan nan nan nan nan nan nan nan nan nan nan nan nan nan nan nan nan nan nan nan nan nan nan nan nan nan nan nan nan nan nan nan nan nan nan
246 247 249 251 252 254 256 257 257 257 255 252 250 250 250 249 254 257 258 257 257 257 257 259 261 262 264 265 271 275 278 280 282 288 289 nan nan nan 286 286 286 286 283 281 276 272 273 275 nan 279 281 nan nan nan nan nan nan nan nan nan nan nan nan nan nan nan nan nan nan nan nan nan nan nan nan nan nan nan nan nan nan nan nan nan nan
nan 249 248 250 252 254 256 259 256 257 256 nan nan nan 252 252 254 257 258 nan 259 258 258 259 261 263 264 265 268 271 273 275 276 283 288 288 286 286 286 285 286 286 285 283 280 278 276 275 276 nan nan nan nan nan nan nan nan nan nan nan nan nan nan nan nan nan nan nan nan nan nan nan nan nan nan nan nan nan nan nan nan nan nan nan nan